Weather History for Tacoma, WA

Change the Weather History Date:

Friday, February 8, 2013

  Actual Average Record
Temperature  
Mean Temperature 36 °F -  
Max Temperature 44 °F 46 °F 64 °F (1963)
Min Temperature 27 °F 30 °F 16 °F (1989)
Degree Days  
Heating Degree Days 30    
Moisture  
Dew Point 33 °F    
Average Humidity 91    
Maximum Humidity 100    
Minimum Humidity 68    
Precipitation  
Precipitation 0.00 in - - ()
Sea Level Pressure  
Sea Level Pressure 30.27 in    
Wind  
Wind Speed 2 mph (NE)    
Max Wind Speed 7 mph    
Max Gust Speed -    
Visibility 10 miles    
Events Rain    
Averages and records for this station are not official NWS values.
T = Trace of Precipitation, MM = Missing Value Source: NWS Daily Summary

Daily Weather History Graph

Daily Weather History Graph

Search for Another Location

Airport:

Trip Planner

Search our weather history database for the weather conditions in past years. The results will help you decide how hot, cold, wet, or windy it might be!

Date:

Astronomy

Feb. 08, 2013 Rise Set
Actual Time 7:25 AM PST 5:23 PM PST
Civil Twilight 6:53 AM PST 5:55 PM PST
Nautical Twilight 6:16 AM PST 6:31 PM PST
Astronomical Twilight 5:41 AM PST 7:07 PM PST
Moon 6:00 AM PST (2/8) 4:01 PM PST (2/8)
Length of Visible Light 11h 02m
Length of Day
9h 58m
Waning Crescent, 3% of the Moon is Illuminated
Feb 8
Waning Crescent
Feb 9
New
Feb 17
First Quarter
Feb 25
Full
Mar 4
Last Quarter

Hourly Weather History & Observations

Time (PST) Temp. Windchill Dew Point Humidity Pressure Visibility Wind Dir Wind Speed Gust Speed Precip Events Conditions
12:18 AM 28.4 °F - 28.4 °F 100% 30.19 in 10.0 mi Calm Calm - N/A   Mostly Cloudy
12:23 AM 28.4 °F - 28.4 °F 100% 30.19 in 10.0 mi Calm Calm - N/A   Partly Cloudy
12:33 AM 28.4 °F - 28.4 °F 100% 30.19 in 10.0 mi South 2.3 mph - N/A   Mostly Cloudy
12:43 AM 28.4 °F - 28.4 °F 100% 30.20 in 10.0 mi SSE 1.2 mph - N/A   Scattered Clouds
12:58 AM 27.5 °F - 27.3 °F 99% 30.22 in 10.0 mi North - - N/A   Partly Cloudy
1:38 AM 28.4 °F - 28.4 °F 100% 30.20 in 10.0 mi South 2.3 mph - N/A   Mostly Cloudy
1:58 AM 28.8 °F 25.0 °F 28.4 °F 99% 30.23 in 10.0 mi South 3.5 mph - N/A   Mostly Cloudy
2:33 AM 30.2 °F - 30.2 °F 100% 30.22 in 10.0 mi SSE 2.3 mph - N/A   Mostly Cloudy
2:58 AM 27.9 °F - 27.7 °F 99% 30.24 in 10.0 mi South 1.2 mph - N/A   Partly Cloudy
3:18 AM 28.4 °F - 28.4 °F 100% 30.22 in 10.0 mi South 1.2 mph - N/A   Mostly Cloudy
3:58 AM 27.9 °F 24.0 °F 27.7 °F 99% 30.24 in 10.0 mi SSE 3.5 mph - N/A   Scattered Clouds
4:38 AM 28.4 °F - 28.4 °F 100% 30.23 in 10.0 mi ENE 1.2 mph - N/A   Mostly Cloudy
4:43 AM 28.4 °F - 26.6 °F 93% 30.24 in 10.0 mi SE 2.3 mph - N/A   Scattered Clouds
4:58 AM 28.6 °F - 28.4 °F 99% 30.26 in 9.0 mi Calm Calm - N/A   Partly Cloudy
5:23 AM 28.4 °F - 28.4 °F 100% 30.25 in 10.0 mi Calm Calm - N/A   Mostly Cloudy
5:58 AM 29.8 °F 26.3 °F 29.5 °F 99% 30.28 in 10.0 mi SSE 3.5 mph - N/A   Overcast
6:03 AM 30.2 °F 25.4 °F 30.2 °F 100% 30.26 in 10.0 mi SE 4.6 mph - N/A   Overcast
6:38 AM 32.0 °F - 32.0 °F 100% 30.26 in 10.0 mi ESE 2.3 mph - N/A   Overcast
6:58 AM 29.8 °F - 29.5 °F 99% 30.28 in 10.0 mi East 1.2 mph - N/A   Mostly Cloudy
7:03 AM 30.2 °F - 30.2 °F 100% 30.26 in 10.0 mi Calm Calm - N/A   Mostly Cloudy
7:13 AM 30.2 °F - 30.2 °F 100% 30.26 in 10.0 mi SE 2.3 mph - N/A   Scattered Clouds
7:18 AM 28.4 °F - 28.4 °F 100% 30.26 in 10.0 mi Calm Calm - N/A   Mostly Cloudy
7:28 AM 30.2 °F - 30.2 °F 100% 30.26 in 10.0 mi Calm Calm - N/A   Mostly Cloudy
7:33 AM 30.2 °F - 30.2 °F 100% 30.27 in 10.0 mi Calm Calm - N/A   Mostly Cloudy
7:43 AM 32.0 °F - 30.2 °F 93% 30.27 in 10.0 mi Calm Calm - N/A   Overcast
7:58 AM 31.1 °F - 30.9 °F 99% 30.30 in 10.0 mi Calm Calm - N/A   Overcast
8:10 AM 32.0 °F - 32.0 °F 100% 30.28 in 10.0 mi Calm Calm - N/A   Overcast
8:13 AM 32.0 °F - 32.0 °F 100% 30.28 in 10.0 mi Calm Calm - N/A   Overcast
8:16 AM 32.0 °F - 32.0 °F 100% 30.28 in 10.0 mi Calm Calm - N/A   Overcast
8:58 AM 34.2 °F - 34.0 °F 99% 30.31 in 10.0 mi Calm Calm - N/A   Mostly Cloudy
9:58 AM 36.9 °F - 36.7 °F 99% 30.31 in 10.0 mi SSE 2.3 mph - N/A   Overcast
10:13 AM 39.2 °F - 37.4 °F 93% 30.30 in 10.0 mi ESE 1.2 mph - N/A   Overcast
10:48 AM 41.0 °F - 39.2 °F 93% 30.31 in 10.0 mi NW 2.3 mph - N/A   Overcast
10:58 AM 40.6 °F - 38.5 °F 92% 30.33 in 10.0 mi Calm Calm - N/A   Overcast
11:18 AM 42.8 °F 41.1 °F 39.2 °F 87% 30.30 in 10.0 mi South 3.5 mph - N/A   Overcast
11:28 AM 42.8 °F - 39.2 °F 87% 30.30 in 10.0 mi Variable 1.2 mph - N/A   Overcast
11:58 AM 42.6 °F - 37.9 °F 83% 30.31 in 10.0 mi Calm Calm - N/A   Mostly Cloudy
12:38 PM 44.6 °F 42.2 °F 35.6 °F 71% 30.28 in 10.0 mi North 4.6 mph - N/A   Mostly Cloudy
12:58 PM 44.6 °F - 36.3 °F 73% 30.30 in 10.0 mi Variable 2.3 mph - N/A   Overcast
1:48 PM 44.6 °F 40.7 °F 35.6 °F 71% 30.28 in 10.0 mi North 6.9 mph - N/A   Overcast
1:58 PM 44.6 °F 41.4 °F 35.4 °F 70% 30.30 in 10.0 mi North 5.8 mph - N/A   Overcast
2:03 PM 44.6 °F 41.4 °F 35.6 °F 71% 30.28 in 10.0 mi North 5.8 mph - N/A   Overcast
2:58 PM 44.8 °F 43.3 °F 35.4 °F 70% 30.30 in 10.0 mi NNE 3.5 mph - N/A   Overcast
3:58 PM 44.6 °F 41.4 °F 34.7 °F 68% 30.30 in 10.0 mi NNE 5.8 mph - N/A   Overcast
4:03 PM 44.6 °F 40.7 °F 35.6 °F 71% 30.28 in 10.0 mi North 6.9 mph - N/A   Overcast
4:58 PM 43.5 °F 40.1 °F 35.1 °F 72% 30.30 in 10.0 mi North 5.8 mph - N/A   Overcast
5:08 PM 42.8 °F 40.1 °F 35.6 °F 76% 30.28 in 10.0 mi North 4.6 mph - N/A   Overcast
5:13 PM 42.8 °F 40.1 °F 35.6 °F 76% 30.28 in 10.0 mi North 4.6 mph - N/A   Overcast
5:43 PM 42.8 °F 40.1 °F 35.6 °F 76% 30.28 in 10.0 mi NNW 4.6 mph - N/A   Overcast
5:58 PM 42.3 °F 38.6 °F 35.4 °F 77% 30.30 in 10.0 mi NW 5.8 mph - N/A   Overcast
6:58 PM 42.3 °F 38.6 °F 36.5 °F 80% 30.30 in 10.0 mi WNW 5.8 mph - N/A   Overcast
7:58 PM 41.7 °F 39.8 °F 36.7 °F 82% 30.30 in 10.0 mi NW 3.5 mph - N/A   Overcast
8:58 PM 41.0 °F - 36.9 °F 85% 30.31 in 10.0 mi NNW 2.3 mph - N/A   Overcast
9:39 PM 41.0 °F - 37.4 °F 87% 30.28 in 10.0 mi North 2.3 mph - N/A Rain Light Rain
9:49 PM 41.0 °F - 37.4 °F 87% 30.28 in 10.0 mi North 1.2 mph - N/A   Overcast
9:58 PM 41.0 °F - 36.9 °F 85% 30.30 in 10.0 mi North 2.3 mph - 0.00 in   Overcast
10:58 PM 39.2 °F - 37.2 °F 93% 30.30 in 10.0 mi Calm Calm - N/A   Overcast
11:58 PM 38.1 °F - 37.9 °F 99% 30.29 in 10.0 mi Calm Calm - N/A   Overcast